Location: Luxembourg
(49.6117°N, 6.1300°E)
Time: 16:22:27
(UTC+02:00)

N. Korean satellite - Pass Details

Date: 27 January 2019
Orbit: 457 x 508 km, 97.2° (Epoch: 19 April)

Event Time Altitude Azimuth Distance (km) Brightness Sun altitude
Rises 06:06:56 0° 24° (NNE) 2,615 10.5 -20.6°
Reaches altitude 10° 06:09:23 10° 39° (NE) 1,717 9.8 -20.2°
Maximum altitude 06:12:22 23° 93° (E) 1,099 9.2 -19.7°
Drops below altitude 10° 06:15:18 10° 147° (SSE) 1,682 9.8 -19.3°
Sets 06:17:40 0° 163° (SSE) 2,547 10.5 -18.9°
